Miscellaneous Local Product
Issued by NWS Hastings, NE

Home | Current Version | Previous Version | Graphics & Text | Print | Product List | Glossary On
Versions: 1 2 3 4 5 6 7 8 9 10 11 12 13 14 15 16 17 18 19 20 21 22 23 24 25 26 27 28 29 30 31 32 33 34 35 36 37 38 39 40 41 42 43 44 45 46 47 48 49 50
000
AXUS43 KGID 161502
MISGRI

GID CWA HOURLY WEATHER ROUNDUP
NATIONAL WEATHER SERVICE HASTINGS NE
1000 AM CDT MON OCT 16 2017

NOTE: "FAIR" INDICATES FEW OR NO CLOUDS BELOW 12,000 FEET WITH NO
SIGNIFICANT WEATHER AND/OR OBSTRUCTIONS TO VISIBILITY.

...SOUTH CENTRAL NEBRASKA...

CITY           SKY/WX    TMP DP  RH WIND       PRES   REMARKS
GRAND ISLAND   SUNNY     54  38  54 S9        30.29F
HASTINGS       SUNNY     51  36  56 SW8       30.31S
KEARNEY        SUNNY     51  38  60 S13       30.29F
ORD            SUNNY     45  36  70 CALM      30.24F
YORK           SUNNY     50  39  66 S9        30.31S
AURORA         SUNNY     51  37  58 SW8       30.30S
LEXINGTON      SUNNY     47  37  65 CALM      30.27F
HOLDREGE       SUNNY     53  33  47 SW14      30.29S
HEBRON         SUNNY     53  40  61 SW7       30.35S

...NEBRASKA PANHANDLE...

CITY           SKY/WX    TMP DP  RH WIND       PRES   REMARKS
CHADRON        CLOUDY    43  29  57 W3        30.19S
ALLIANCE       CLOUDY    41  31  67 W5        30.22S
SCOTTSBLUFF    CLOUDY    40  30  67 NW3       30.24S
SIDNEY         SUNNY     47  30  51 W7        30.26S

...WESTERN AND NORTH CENTRAL NEBRASKA...

CITY           SKY/WX    TMP DP  RH WIND       PRES   REMARKS
VALENTINE      SUNNY     50  33  52 SW8       30.16F
AINSWORTH      SUNNY     52  32  46 SW12G17   30.18S
ONEILL         SUNNY     51  38  60 S8        30.22F
BROKEN BOW     SUNNY     51  37  58 SW5       30.24F
IMPERIAL       SUNNY     47  32  56 W9        30.27S
NORTH PLATTE   SUNNY     45  38  76 W3        30.26S
MCCOOK         SUNNY     44  34  67 SW6       30.29S

...EASTERN NEBRASKA...

CITY           SKY/WX    TMP DP  RH WIND       PRES   REMARKS
NORFOLK        SUNNY     52  35  52 S17       30.26F
SO SIOUX CITY  SUNNY     46  40  79 SE6       30.28F
TEKAMAH        SUNNY     50  40  68 S6        30.31F
COLUMBUS       SUNNY     52  40  63 S8        30.30F
ALBION         SUNNY     49  39  70 SE5       30.27F
OMAHA EPPLEY   SUNNY     50  40  68 S7        30.33F
OFFUTT AFB     SUNNY     48  42  78 SE3       30.33F
MILLARD        SUNNY     53  42  67 SE5       30.33F
LINCOLN        SUNNY     49  41  74 S7        30.35S
NEBRASKA CITY  SUNNY     55  39  55 S12       30.35F
BEATRICE       SUNNY     51  41  67 S6        30.35S
FALLS CITY     SUNNY     52  44  74 SE3       30.37S

...NORTHERN KANSAS...

CITY           SKY/WX    TMP DP  RH WIND       PRES   REMARKS
GOODLAND       SUNNY     55  32  41 S12       30.29S
HILL CITY      SUNNY     54  39  57 SW8       30.33F
NORTON         SUNNY     55  34  44 S8        30.30S
PHILLIPSBURG   SUNNY     52  36  54 S5        30.33F
SMITH CENTER   SUNNY     50  39  66 S7        30.35S
HAYS           SUNNY     53  38  56 SW14      30.36F
RUSSELL        SUNNY     51  39  63 SW15      30.36R
CONCORDIA      SUNNY     55  39  54 SW12      30.36S
SALINA         SUNNY     54  46  74 S6        30.39R
TOPEKA         SUNNY     51  45  79 CALM      30.40S



USA.gov is the U.S. government's official web portal to all federal, state and local government web resources and services.